Location: Glass Lake
(42.6301°N, 73.5309°W)
Time: 02:53:55
(UTC+00:00)

ACS3 Solar Sail - Pass Details

Date: 14 October 2024
Orbit: 961 x 1023 km, 97.5° (Epoch: 02 November)

Event Time Altitude Azimuth Distance (km) Brightness Sun altitude
Exits shadow 01:55:51 28° 260° (W) 1,821 3.4 -40.3°
Maximum altitude 01:56:23 29° 268° (W) 1,810 3.5 -40.4°
Drops below altitude 10° 02:01:52 10° 327° (NNW) 2,850 4.8 -41.2°
Sets 02:04:47 0° 338° (NNW) 3,806 5.5 -41.7°
